Weather History for Ocala, FL

Change the Weather History Date:

Sunday, May 4, 2014

  Actual Average Record
Temperature  
Mean Temperature 68 °F -  
Max Temperature 84 °F 83 °F 96 °F (2011)
Min Temperature 51 °F 59 °F 51 °F (1999)
Cooling Degree Days 2    
Growing Degree Days 18 (Base 50)    
Moisture  
Dew Point 51 °F    
Average Humidity 67    
Maximum Humidity 88    
Minimum Humidity 33    
Precipitation  
Precipitation 0.00 in - - ()
Sea Level Pressure  
Sea Level Pressure 30.07 in    
Wind  
Wind Speed 2 mph (NW)    
Max Wind Speed 9 mph    
Max Gust Speed -    
Visibility 7 miles    
Events      
Averages and records for this station are not official NWS values.
T = Trace of Precipitation, MM = Missing Value Source: NWS Daily Summary

Daily Weather History Graph

Daily Weather History Graph

Search for Another Location

Airport:

Trip Planner

Search our weather history database for the weather conditions in past years. The results will help you decide how hot, cold, wet, or windy it might be!

Date:

Astronomy

May. 04, 2014 Rise Set
Actual Time 6:44 AM EDT 8:06 PM EDT
Civil Twilight 6:19 AM EDT 8:32 PM EDT
Nautical Twilight 5:49 AM EDT 9:02 PM EDT
Astronomical Twilight 5:18 AM EDT 9:33 PM EDT
Moon 11:09 AM EDT (5/4) 12:08 AM EDT (5/4)
Length of Visible Light 14h 12m
Length of Day
13h 22m
Waxing Crescent, 27% of the Moon is Illuminated
May 4
Waxing Crescent
May 6
First Quarter
May 14
Full
May 21
Last Quarter
May 28
New

Hourly Weather History & Observations

Time (EDT) Temp. Dew Point Humidity Pressure Visibility Wind Dir Wind Speed Gust Speed Precip Events Conditions
12:15 AM 57.2 °F 51.8 °F 82% 30.08 in 0.5 mi Calm Calm - N/A   Unknown
12:35 AM 55.4 °F 51.8 °F 88% 30.08 in 0.5 mi Calm Calm - N/A   Scattered Clouds
12:55 AM 55.4 °F 51.8 °F 88% 30.08 in 0.5 mi Calm Calm - N/A   Unknown
1:15 AM 55.4 °F 50.0 °F 82% 30.08 in 0.5 mi Calm Calm - N/A   Unknown
1:35 AM 55.4 °F 48.2 °F 77% 30.07 in 0.2 mi Calm Calm - N/A   Unknown
1:55 AM 55.4 °F 50.0 °F 82% 30.07 in 0.2 mi Calm Calm - N/A   Mostly Cloudy
2:15 AM 53.6 °F 48.2 °F 82% 30.06 in 0.2 mi Calm Calm - N/A   Unknown
2:35 AM 53.6 °F 48.2 °F 82% 30.06 in 0.8 mi Calm Calm - N/A   Mostly Cloudy
2:55 AM 53.6 °F 48.2 °F 82% 30.05 in 0.5 mi Calm Calm - N/A   Unknown
3:15 AM 51.8 °F 46.4 °F 82% 30.05 in 1.2 mi Calm Calm - N/A   Mostly Cloudy
3:35 AM 51.8 °F 46.4 °F 82% 30.05 in 0.5 mi Calm Calm - N/A   Mostly Cloudy
3:55 AM 51.8 °F 46.4 °F 82% 30.05 in 1.0 mi Calm Calm - N/A   Clear
4:15 AM 51.8 °F 46.4 °F 82% 30.05 in 2.5 mi Calm Calm - N/A   Clear
4:35 AM 51.8 °F 46.4 °F 82% 30.06 in 1.8 mi Calm Calm - N/A   Clear
4:55 AM 51.8 °F 46.4 °F 82% 30.06 in 5.0 mi Calm Calm - N/A   Clear
5:15 AM 51.8 °F 46.4 °F 82% 30.06 in 7.0 mi Calm Calm - N/A   Clear
5:35 AM 51.8 °F 46.4 °F 82% 30.06 in 10.0 mi Calm Calm - N/A   Clear
5:55 AM 51.8 °F 46.4 °F 82% 30.07 in 4.0 mi Calm Calm - N/A   Clear
6:15 AM 51.8 °F 46.4 °F 82% 30.08 in 5.0 mi Calm Calm - N/A   Clear
6:35 AM 51.8 °F 46.4 °F 82% 30.08 in 5.0 mi Calm Calm - N/A   Clear
6:50 AM 51.8 °F 46.4 °F 82% 30.09 in 10.0 mi Calm Calm - N/A   Clear
7:50 AM 55.4 °F 50.0 °F 82% 30.10 in 10.0 mi Calm Calm - N/A   Clear
8:50 AM 62.6 °F 53.6 °F 72% 30.11 in 10.0 mi NNW 5.8 mph - N/A   Clear
9:50 AM 69.8 °F 53.6 °F 56% 30.13 in 10.0 mi NNW 9.2 mph - N/A   Clear
10:50 AM 73.4 °F 55.4 °F 53% 30.12 in 10.0 mi North 9.2 mph - N/A   Clear
11:50 AM 78.8 °F 53.6 °F 42% 30.12 in 10.0 mi North 9.2 mph - N/A   Clear
12:50 PM 80.6 °F 50.0 °F 34% 30.11 in 10.0 mi North 9.2 mph - N/A   Clear
1:50 PM 80.6 °F 51.8 °F 37% 30.10 in 10.0 mi NNE 9.2 mph - N/A   Clear
2:50 PM 82.4 °F 51.8 °F 35% 30.08 in 10.0 mi North 9.2 mph - N/A   Clear
3:50 PM 82.4 °F 51.8 °F 35% 30.05 in 10.0 mi North 9.2 mph - N/A   Clear
4:50 PM 84.2 °F 51.8 °F 33% 30.03 in 10.0 mi North 9.2 mph - N/A   Clear
5:50 PM 82.4 °F 51.8 °F 35% 30.03 in 10.0 mi NNE 6.9 mph - N/A   Clear
6:50 PM 82.4 °F 51.8 °F 35% 30.03 in 10.0 mi North 6.9 mph - N/A   Clear
7:55 PM 75.2 °F 55.4 °F 50% 30.04 in 10.0 mi Calm Calm - N/A   Clear
8:15 PM 73.4 °F 53.6 °F 50% 30.05 in 10.0 mi Calm Calm - N/A   Clear
8:35 PM 69.8 °F 51.8 °F 53% 30.05 in 10.0 mi Calm Calm - N/A   Clear
8:55 PM 68.0 °F 53.6 °F 60% 30.06 in 10.0 mi SW 4.6 mph - N/A   Clear
9:15 PM 71.6 °F 57.2 °F 60% 30.07 in 10.0 mi West 4.6 mph - N/A   Clear
9:35 PM 69.8 °F 57.2 °F 64% 30.07 in 10.0 mi West 4.6 mph - N/A   Clear
9:55 PM 69.8 °F 55.4 °F 60% 30.08 in 10.0 mi SSW 4.6 mph - N/A   Clear
10:15 PM 66.2 °F 55.4 °F 68% 30.08 in 10.0 mi SW 3.5 mph - N/A   Clear
10:35 PM 68.0 °F 57.2 °F 68% 30.09 in 10.0 mi WSW 3.5 mph - N/A   Clear
10:55 PM 66.2 °F 55.4 °F 68% 30.09 in 10.0 mi Calm Calm - N/A   Clear
11:15 PM 64.4 °F 55.4 °F 73% 30.09 in 10.0 mi Calm Calm - N/A   Clear
11:35 PM 64.4 °F 55.4 °F 73% 30.10 in 10.0 mi Calm Calm - N/A   Clear
11:55 PM 64.4 °F 55.4 °F 73% 30.10 in 10.0 mi West 3.5 mph - N/A   Clear